DateTimeUTC,F1_A11,F1_S11,BsB_S11,BsG_S11,BsR_S11,BbsB_S11,BbsG_S11,BbsR_S11,BaB_A11,BaG_A11,BaR_A11,Tu_S11,T_S11,Uu_S11,U_S11,P_S11,T1_A11
2021-08-27T14:00:00Z,00000200,20000000,,,,,,,0000.17,0000.12,-000.14,19.2,25.8,07.0,04.7,0669.5,31.0
2021-08-27T14:01:00Z,00000200,20000000,,,,,,,-000.21,-000.21,0000.21,19.2,25.8,06.9,04.6,0669.5,31.0
2021-08-27T14:02:00Z,00000200,20000000,,,,,,,-000.06,0000.21,-000.09,19.2,25.8,06.9,04.6,0669.6,31.0
2021-08-27T14:03:00Z,00000200,60000000,,,,,,,0000.69,0000.57,0000.15,19.2,25.8,06.9,04.6,0669.5,31.1
2021-08-27T14:04:00Z,00000200,40000000,0003.65,0003.34,0002.01,0000.76,0000.67,0000.65,0000.60,0000.83,0000.87,19.3,25.6,07.0,04.8,0670.4,31.1
2021-08-27T14:05:00Z,00000200,00000000,0002.93,0003.08,0002.01,0001.38,0000.40,0000.68,0000.87,0000.82,0000.76,19.3,25.6,07.1,04.9,0670.6,31.0
2021-08-27T14:06:00Z,00000200,00000000,0003.46,0003.47,0002.03,0000.65,0000.18,0000.65,0000.75,0000.50,0000.35,19.3,25.6,07.1,04.9,0670.5,31.0
2021-08-27T14:07:00Z,00000200,00000000,0003.69,0003.38,0002.39,0000.66,0000.51,0000.41,0001.21,0000.73,0000.89,19.3,25.6,07.2,04.9,0670.8,31.1
2021-08-27T14:08:00Z,00000200,00000000,0004.54,0003.12,0002.63,0000.59,0000.60,0000.54,0000.52,0000.62,0000.38,19.4,25.6,07.3,05.0,0670.7,31.1
2021-08-27T14:09:00Z,00000200,00000000,0004.87,0003.14,0002.37,0000.60,0000.45,0000.50,0000.88,0000.66,0000.94,19.3,25.6,07.2,04.9,0670.7,31.1
2021-08-27T14:10:00Z,00000200,00000000,0003.94,0003.73,0002.65,0000.47,0000.72,0000.42,0000.79,0000.95,0000.40,19.3,25.6,07.3,05.0,0670.7,31.1
2021-08-27T14:11:00Z,00000200,00000000,0004.17,0003.59,0002.32,0000.68,0000.43,0000.57,0000.66,0001.08,0000.67,19.3,25.5,07.3,05.0,0670.6,31.0
2021-08-27T14:12:00Z,00000200,00000000,0004.45,0003.60,0002.39,0000.77,0000.38,0000.10,0000.99,0000.76,0000.79,19.3,25.5,07.3,05.0,0670.7,31.0
2021-08-27T14:13:00Z,00000200,00000000,0003.99,0003.59,0002.46,0001.14,0000.63,0000.74,0000.60,0000.57,0000.38,19.3,25.5,07.3,05.0,0670.5,31.0
2021-08-27T14:14:00Z,00000200,00000000,0004.31,0003.46,0002.56,0000.15,0000.64,0000.43,0001.14,0000.98,0000.85,19.3,25.5,07.3,05.0,0670.6,31.1
2021-08-27T14:15:00Z,00000200,00000000,0004.59,0003.55,0002.18,0000.25,0000.38,0000.53,0000.93,0000.60,0000.66,19.3,25.5,07.3,05.0,0670.6,31.1
2021-08-27T14:16:00Z,00000200,00000000,0004.58,0003.50,0002.60,0001.15,0000.85,0000.54,0000.72,0001.06,0000.80,19.4,25.5,07.3,05.0,0670.7,31.1
2021-08-27T14:17:00Z,00000200,00000000,0004.72,0003.81,0002.43,0001.17,0000.50,0000.71,0001.17,0000.54,0000.99,19.5,25.6,07.4,05.1,0670.6,31.1
2021-08-27T14:18:00Z,00000200,00000000,0004.14,0003.75,0002.20,0000.52,0000.37,0000.33,0000.34,0000.86,0000.26,19.6,25.7,07.3,05.1,0670.7,31.1
2021-08-27T14:19:00Z,00000200,00000000,0004.16,0003.98,0002.38,0000.35,0000.41,0000.47,0001.33,0001.10,0000.99,19.6,25.7,07.3,05.1,0670.7,31.1
2021-08-27T14:20:00Z,00000200,00000000,0004.77,0003.65,0002.70,0000.24,0000.36,0000.64,0000.65,0000.64,0000.61,19.7,25.7,07.4,05.1,0670.6,31.1
2021-08-27T14:21:00Z,00000200,00000000,0004.04,0003.14,0002.38,0000.74,0000.10,0000.39,0000.82,0000.98,0000.51,19.7,25.7,07.5,05.2,0670.7,31.1
2021-08-27T14:22:00Z,00000200,00000000,0004.30,0003.32,0002.38,0001.06,0000.30,0000.21,0000.66,0000.44,0000.85,19.7,25.7,07.5,05.2,0670.8,31.1
2021-08-27T14:23:00Z,00000200,00000000,0004.97,0003.72,0002.18,0000.82,0000.58,0000.51,0000.53,0000.70,-000.24,19.7,25.7,07.5,05.2,0670.6,31.1
2021-08-27T14:24:00Z,00000200,00000000,0003.65,0003.21,0001.91,0000.65,0000.44,0000.18,0000.69,0000.48,0000.74,19.7,25.7,07.3,05.0,0670.5,31.1
2021-08-27T14:25:00Z,00000200,00000000,0003.63,0003.23,0002.56,0000.61,0000.41,0000.75,0001.29,0001.01,0001.28,19.7,25.7,07.4,05.1,0670.6,31.1
2021-08-27T14:26:00Z,00000200,00000000,0004.09,0003.51,0002.29,0000.52,0000.19,0000.51,0000.30,0000.42,0000.34,19.6,25.7,07.4,05.1,0670.7,31.1
2021-08-27T14:27:00Z,00000200,00000000,0004.13,0003.21,0001.93,0001.65,0000.65,-000.13,0000.59,0000.19,0000.10,19.6,25.7,07.3,05.1,0670.6,31.1
2021-08-27T14:28:00Z,00000200,00000000,0003.68,0002.95,0002.13,0000.77,0000.26,0000.80,0000.86,0000.98,0000.74,19.6,25.7,07.3,05.0,0670.7,31.1
2021-08-27T14:29:00Z,00000200,00000000,0004.69,0003.35,0001.81,0001.04,0000.47,0000.26,0000.44,0000.39,0000.59,19.6,25.7,07.3,05.1,0670.5,31.1
2021-08-27T14:30:00Z,00000200,00000000,0003.61,0002.89,0002.26,0000.62,0000.49,0000.22,0000.74,0001.32,0000.49,19.7,25.7,07.2,05.0,0670.5,31.1
2021-08-27T14:31:00Z,00000200,00000000,0004.65,0003.12,0002.53,0000.74,0000.38,0000.63,0000.63,-000.03,0000.53,19.6,25.7,07.2,05.0,0670.6,31.1
2021-08-27T14:32:00Z,00000200,00000000,0003.64,0003.54,0002.08,0000.79,0000.28,0000.70,0000.75,0000.96,0000.38,19.6,25.7,07.3,05.0,0670.6,31.1
2021-08-27T14:33:00Z,00000200,00000000,0003.76,0002.64,0001.90,0000.72,0000.21,0000.31,0000.76,0000.77,0000.73,19.7,25.7,07.2,05.0,0670.5,31.1
2021-08-27T14:34:00Z,00000200,00000000,0004.48,0003.00,0001.89,0001.26,0000.65,0000.37,0000.63,0000.36,0000.32,19.7,25.7,07.1,04.9,0670.5,31.1
2021-08-27T14:35:00Z,00000200,00000000,0004.58,0003.36,0001.86,0000.34,0000.44,0000.38,0000.62,0000.99,0000.60,19.7,25.8,07.2,05.0,0670.6,31.1
2021-08-27T14:36:00Z,00000200,00000000,0004.38,0003.26,0001.83,0000.84,0000.43,0000.44,0000.66,0000.52,0000.66,19.7,25.8,07.3,05.1,0670.6,31.1
2021-08-27T14:37:00Z,00000200,00000000,0003.52,0002.73,0001.98,0001.08,0000.57,0000.72,0000.67,0000.44,0000.33,19.7,25.8,07.3,05.0,0670.6,31.1
2021-08-27T14:38:00Z,00000200,00000000,0003.90,0002.88,0002.12,0000.81,0000.68,0000.36,0001.03,0001.22,0000.78,19.7,25.8,07.4,05.1,0670.7,31.1
2021-08-27T14:39:00Z,00000200,00000000,0003.64,0002.83,0001.79,0000.81,0000.15,0000.53,0000.39,0000.48,0000.70,19.7,25.8,07.4,05.1,0670.7,31.1
2021-08-27T14:40:00Z,00000200,00000000,0004.01,0003.17,0001.77,0000.79,0000.47,0000.53,0000.55,0000.28,0000.34,19.7,25.8,07.3,05.0,0670.6,31.1
2021-08-27T14:41:00Z,00000200,00000000,0003.93,0003.07,0002.01,0000.24,0000.19,0000.38,0000.76,0000.16,0000.52,19.7,25.8,07.4,05.1,0670.6,31.1
2021-08-27T14:42:00Z,00000200,00000000,0003.09,0002.85,0002.14,0000.87,0000.39,0000.45,0000.91,0001.02,0000.44,19.7,25.8,07.3,05.1,0670.7,31.1
2021-08-27T14:43:00Z,00000200,00000000,0003.59,0002.84,0001.85,0000.35,0000.65,0000.27,0000.80,0000.79,0000.68,19.7,25.8,07.3,05.1,0670.7,31.1
2021-08-27T14:44:00Z,00000200,00000000,0003.75,0002.83,0002.01,0000.84,0000.35,0000.81,0000.50,0000.12,0000.43,19.7,25.8,07.2,05.0,0670.5,31.1
2021-08-27T14:45:00Z,00000200,00000000,0003.49,0002.91,0001.93,0000.53,0000.45,0000.54,0000.62,0000.97,0000.64,19.7,25.8,07.2,05.0,0670.5,31.1
2021-08-27T14:46:00Z,00000200,00000000,0003.35,0002.47,0001.88,0000.85,0000.18,0000.55,0000.40,0000.56,0000.36,19.7,25.8,07.2,05.0,0670.5,31.1
2021-08-27T14:47:00Z,00000200,00000000,0003.08,0002.78,0001.68,0000.72,0000.28,0000.23,0000.79,0000.88,0000.72,19.7,25.8,07.2,05.0,0670.7,31.1
2021-08-27T14:48:00Z,00000200,00000000,0003.64,0002.74,0001.71,0001.14,0000.67,0000.50,0000.50,0000.17,0000.14,19.7,25.8,07.4,05.1,0670.8,31.1
2021-08-27T14:49:00Z,00000200,00000000,0003.67,0002.34,0002.07,0000.71,0000.31,0000.56,0000.63,0000.91,0000.89,19.6,25.8,07.4,05.1,0670.8,31.1
2021-08-27T14:50:00Z,00000200,00000000,0003.72,0002.48,0002.00,0001.26,0000.34,0000.52,0000.61,0000.37,0000.07,19.7,25.8,07.3,05.1,0670.8,31.1
2021-08-27T14:51:00Z,00000200,00000000,0003.75,0002.58,0002.46,0000.94,0000.37,0000.51,0000.68,0000.33,0000.60,19.6,25.8,07.3,05.0,0670.8,31.1
2021-08-27T14:52:00Z,00000200,00000000,0003.13,0003.04,0001.81,0000.23,0000.42,0000.29,0000.44,0000.83,0000.47,19.6,25.8,07.5,05.2,0670.8,31.1
2021-08-27T14:53:00Z,00000200,00000000,0003.10,0002.63,0001.63,0001.13,0000.25,0000.27,0000.69,0000.72,0000.14,19.6,25.8,07.4,05.1,0670.7,31.1
2021-08-27T14:54:00Z,00000200,00000000,0003.34,0002.69,0001.80,0000.74,0000.22,0000.88,0000.44,0000.19,0000.74,19.6,25.8,07.4,05.1,0670.6,31.1
2021-08-27T14:55:00Z,00000200,00000000,0003.54,0002.54,0001.93,0000.74,0000.43,0000.74,0001.08,0000.73,0000.61,19.6,25.8,07.4,05.1,0670.7,31.1
2021-08-27T14:56:00Z,00000200,00000000,0003.71,0002.90,0001.60,0001.05,0000.23,0000.50,0000.28,0000.71,0000.32,19.6,25.8,07.5,05.1,0670.6,31.1
2021-08-27T14:57:00Z,00000200,40000000,,,,,,,0000.18,0000.02,0000.19,19.6,25.8,07.6,05.2,0670.5,31.1
2021-08-27T14:58:00Z,00000200,60000000,,,,,,,-000.21,-000.27,-000.12,19.4,25.8,07.2,04.9,0669.6,31.1
2021-08-27T14:59:00Z,00000200,20000000,,,,,,,0000.34,0000.52,0000.08,19.4,25.9,07.1,04.8,0669.7,31.1
